Location: *
(34.6903°N, 135.5184°E)
Time: 08:42:53
(UTC+00:00)

SL-4 R/B - Pass Details

Date: 22 September 2019
Orbit: 428 x 667 km, 51.6° (Epoch: 14 October)

Event Time Altitude Azimuth Distance (km) Brightness Sun altitude
Exits shadow 20:04:08 13° 260° (W) 1,412 3.4 -9.4°
Maximum altitude 20:05:37 16° 231° (SW) 1,282 3.4 -9.1°
Drops below altitude 10° 20:07:58 10° 192° (SSW) 1,647 4.3 -8.7°
Sets 20:10:48 0° 170° (S) 2,575 5.5 -8.1°
